Location: Yellowknife
(62.4500°N, 114.3500°W)
Time: 01:08:20
(UTC-07:00)

ISS - Visible Passes

Search period start: 29 November 2023 00:00
Search period end: 09 December 2023 00:00
Orbit: 416 x 418 km, 51.6° (Epoch: 29 November)

Date Brightness Start Highest point End Pass type
(mag) Time Alt. Az. Time Alt. Az. Time Alt. Az.
29 Nov -1.0 16:25:40 10° SSW 16:27:15 13° S 16:28:50 10° SE visible
29 Nov -1.0 18:01:31 10° SW 18:03:01 13° S 18:04:32 10° SSE visible
30 Nov -0.9 17:13:13 10° SW 17:14:55 13° S 17:16:38 10° SSE visible
01 Dec -0.9 16:25:01 10° SSW 16:26:47 14° S 16:28:33 10° SSE visible
02 Dec -0.7 17:13:10 10° SW 17:14:20 11° SSW 17:15:30 10° S visible
03 Dec -0.7 16:24:35 10° SW 16:26:08 13° S 16:27:40 10° SSE visible
05 Dec -0.1 16:24:57 10° SSW 16:25:16 10° SSW 16:25:33 10° SSW visible
